Location: *
(46.4000°N, 12.6667°E)
Time: 22:48:30
(UTC+00:00)

STARLINK-1244 - Pass Details

Date: 09 April 2020
Orbit: 549 x 551 km, 53.0° (Epoch: 24 May)

Event Time Altitude Azimuth Distance (km) Brightness Sun altitude
Rises 19:53:58 0° 300° (WNW) 2,725 8.7 -20.2°
Reaches altitude 10° 19:56:12 10° 300° (WNW) 1,829 7.5 -20.5°
Maximum altitude 20:00:23 88° 210° (SSW) 556 3.5 -21.1°
Enters shadow 20:00:49 71° 128° (SE) 586 3.4 -21.2°
